This is the latest recevied weather packets stored in our database for station/object 4S6DRJ-13. If no packets are shown the sender has not sent any weather packets the latest 10 day(s).
| Time | Temp. | Humidity | Pressure | Rain* | Wind** | Luminosity | Snow |
|---|---|---|---|---|---|---|---|
| 1788132729 | 27.78° C | 84% | 1009 hPa | 0 mm | 0.89 m/s, 273° | 0 W/m² | - |
| 1788132667 | 27.78° C | 84% | 1008.9 hPa | 0 mm | 1.34 m/s, 271° | 0 W/m² | - |
| 1788132606 | 27.78° C | 84% | 1009 hPa | 0 mm | 0.89 m/s, 301° | 0 W/m² | - |
| 1788132545 | 27.78° C | 84% | 1008.9 hPa | 0 mm | 0.89 m/s, 157° | 0 W/m² | - |
| 1788132484 | 27.78° C | 84% | 1009 hPa | 0 mm | 0.45 m/s, 237° | 0 W/m² | - |
| 1788132423 | 27.78° C | 84% | 1008.9 hPa | 0 mm | 0 m/s | 0 W/m² | - |
| 1788132362 | 27.78° C | 84% | 1009 hPa | 0 mm | 0.45 m/s, 306° | 0 W/m² | - |
| 1788132301 | 27.78° C | 83% | 1008.9 hPa | 0 mm | 0.45 m/s, 259° | 0 W/m² | - |
| 1788132257 | 27.78° C | 83% | 1009.1 hPa | 0 mm | 0.89 m/s, 243° | 0 W/m² | - |
| 1788132179 | 27.78° C | 83% | 1008.9 hPa | 0 mm | 0 m/s | 0 W/m² | - |
| 1788132119 | 27.78° C | 83% | 1009 hPa | 0 mm | 0.45 m/s, 246° | 0 W/m² | - |
| 1788132057 | 27.78° C | 83% | 1008.9 hPa | 0 mm | 0.45 m/s, 274° | 0 W/m² | - |
| 1788131996 | 27.78° C | 83% | 1009 hPa | 0 mm | 0 m/s | 0 W/m² | - |
| 1788131935 | 27.78° C | 83% | 1008.8 hPa | 0 mm | 0.45 m/s, 264° | 0 W/m² | - |
| 1788131874 | 27.78° C | 83% | 1009 hPa | 0 mm | 0.89 m/s, 251° | 0 W/m² | - |
| 1788131814 | 27.78° C | 83% | 1009 hPa | 0 mm | 0.89 m/s, 215° | 0 W/m² | - |
| 1788131752 | 27.78° C | 83% | 1008.9 hPa | 0 mm | 1.34 m/s, 326° | 0 W/m² | - |
| 1788131691 | 27.78° C | 83% | 1009.1 hPa | 0 mm | 0.45 m/s, 242° | 0 W/m² | - |
| 1788131630 | 27.78° C | 83% | 1008.9 hPa | 0 mm | 0.89 m/s, 229° | 0 W/m² | - |
| 1788131569 | 27.78° C | 83% | 1009.1 hPa | 0 mm | 1.79 m/s, 324° | 0 W/m² | - |
| 1788131508 | 27.78° C | 83% | 1009 hPa | 0 mm | 0.89 m/s, 221° | 0 W/m² | - |
| 1788131447 | 27.78° C | 83% | 1009 hPa | 0 mm | 1.79 m/s, 320° | 0 W/m² | - |
| 1788131386 | 27.78° C | 83% | 1009 hPa | 0 mm | 1.79 m/s, 267° | 0 W/m² | - |
| 1788131325 | 27.78° C | 83% | 1009.1 hPa | 0 mm | 0.89 m/s, 214° | 0 W/m² | - |
| 1788131264 | 27.78° C | 83% | 1009 hPa | 0 mm | 0.45 m/s, 255° | 0 W/m² | - |
* Rain latest hour (hover to see other rain measurements)
** Current wind speed in m/s (hover to see current wind gust speed)